Location: Arrodets-la-Barthe
(43.0306°N, 0.2829°E)
Time: 13:25:37
(UTC+00:00)

SJ-11-01 - Pass Details

Date: 24 October 2021
Orbit: 684 x 700 km, 97.9° (Epoch: 08 December)

Event Time Altitude Azimuth Distance (km) Brightness Sun altitude
Rises 18:08:20 0° 159° (SSE) 3,044 7.4 -12.8°
Reaches altitude 10° 18:10:33 10° 157° (SSE) 2,135 6.6 -13.2°
Maximum altitude 18:15:12 70° 75° (ENE) 737 4.2 -14.0°
Drops below altitude 10° 18:19:55 10° 352° (N) 2,161 6.9 -14.9°
Sets 18:22:11 0° 350° (N) 3,085 7.7 -15.3°
